• In Uzbekistan
  • List of Countries
  • For 7 days
  • Water Temperature
  • Satellite Maps
  • Weather Map
  • Weather Widgets
  • user-avatar
    Login

    Hourly Weather Córdoba

    Today, 26 May, Friday

    Time Temperature Precipitation Wind Pressure Humidity
    00:00 +11°C° 0 mm 4 mps 726 mmHg 79%
    01:00 +10°C° 0 mm 4 mps 726 mmHg 77%
    02:00 +10°C° 0 mm 4 mps 726 mmHg 76%
    03:00 +10°C° 0 mm 3 mps 726 mmHg 74%
    04:00 +9°C° 0 mm 3 mps 726 mmHg 71%
    05:00 +9°C° 0 mm 3 mps 726 mmHg 69%
    06:00 +9°C° 0 mm 3 mps 727 mmHg 65%
    07:00 +10°C° 0 mm 3 mps 728 mmHg 61%
    08:00 +10°C° 0 mm 3 mps 728 mmHg 57%
    09:00 +12°C° 0 mm 4 mps 729 mmHg 48%
    10:00 +14°C° 0 mm 4 mps 729 mmHg 39%
    11:00 +17°C° 0 mm 4 mps 730 mmHg 29%
    12:00 +17°C° 0 mm 4 mps 730 mmHg 28%
    13:00 +18°C° 0 mm 4 mps 730 mmHg 27%
    14:00 +18°C° 0 mm 4 mps 730 mmHg 26%
    15:00 +17°C° 0 mm 4 mps 730 mmHg 30%
    16:00 +15°C° 0 mm 4 mps 730 mmHg 34%
    17:00 +14°C° 0 mm 3 mps 730 mmHg 37%
    18:00 +13°C° 0 mm 3 mps 730 mmHg 42%
    19:00 +12°C° 0 mm 3 mps 731 mmHg 46%
    20:00 +11°C° 0 mm 3 mps 732 mmHg 51%
    21:00 +10°C° 0 mm 3 mps 732 mmHg 53%
    22:00 +9°C° 0 mm 3 mps 732 mmHg 55%
    23:00 +9°C° 0 mm 3 mps 733 mmHg 58%

    Tomorrow, 27 May, Saturday

    Time Temperature Precipitation Wind Pressure Humidity
    00:00 +9°C° 0 mm 3 mps 732 mmHg 60%
    01:00 +8°C° 0 mm 3 mps 732 mmHg 61%
    02:00 +8°C° 0 mm 2 mps 732 mmHg 63%
    03:00 +8°C° 0 mm 2 mps 732 mmHg 64%
    04:00 +7°C° 0 mm 2 mps 732 mmHg 66%
    05:00 +7°C° 0 mm 2 mps 732 mmHg 67%
    06:00 +7°C° 0 mm 2 mps 732 mmHg 67%
    07:00 +7°C° 0 mm 2 mps 733 mmHg 67%
    08:00 +7°C° 0 mm 2 mps 733 mmHg 67%
    09:00 +9°C° 0 mm 2 mps 733 mmHg 58%
    10:00 +10°C° 0 mm 2 mps 733 mmHg 50%
    11:00 +13°C° 0 mm 2 mps 733 mmHg 42%
    12:00 +14°C° 0 mm 2 mps 733 mmHg 39%
    13:00 +15°C° 0 mm 2 mps 732 mmHg 35%
    14:00 +14°C° 0 mm 3 mps 731 mmHg 32%
    15:00 +15°C° 0 mm 2 mps 731 mmHg 36%
    16:00 +14°C° 0 mm 2 mps 731 mmHg 39%
    17:00 +13°C° 0 mm 2 mps 731 mmHg 42%
    18:00 +10°C° 0 mm 2 mps 731 mmHg 47%
    19:00 +9°C° 0 mm 2 mps 731 mmHg 52%
    20:00 +8°C° 0 mm 2 mps 731 mmHg 58%
    21:00 +8°C° 0 mm 1 mps 731 mmHg 62%
    22:00 +8°C° 0 mm 1 mps 731 mmHg 67%
    23:00 +7°C° 0 mm 1 mps 731 mmHg 71%

    Day after tomorrow, 28 May, Sunday

    Time Temperature Precipitation Wind Pressure Humidity
    00:00 +7°C° 0 mm 1 mps 731 mmHg 75%
    01:00 +7°C° 0 mm 1 mps 731 mmHg 79%
    02:00 +6°C° 0 mm 1 mps 730 mmHg 83%
    03:00 +6°C° 0 mm 1 mps 730 mmHg 85%
    04:00 +6°C° 0 mm 1 mps 729 mmHg 87%
    05:00 +5°C° 0 mm 0 mps 729 mmHg 88%
    06:00 +7°C° 0 mm 1 mps 729 mmHg 88%
    07:00 +7°C° 0 mm 1 mps 729 mmHg 87%
    08:00 +8°C° 0 mm 1 mps 730 mmHg 86%
    09:00 +10°C° 0 mm 1 mps 730 mmHg 77%
    10:00 +11°C° 0 mm 1 mps 730 mmHg 68%
    11:00 +13°C° 0 mm 1 mps 730 mmHg 59%
    12:00 +14°C° 0 mm 1 mps 729 mmHg 54%
    13:00 +15°C° 0 mm 2 mps 728 mmHg 50%
    14:00 +16°C° 0 mm 2 mps 728 mmHg 46%
    15:00 +15°C° 0 mm 2 mps 727 mmHg 50%
    16:00 +14°C° 0 mm 2 mps 727 mmHg 55%
    17:00 +13°C° 0 mm 2 mps 727 mmHg 60%
    18:00 +12°C° 0 mm 1 mps 727 mmHg 66%
    19:00 +11°C° 0 mm 1 mps 727 mmHg 72%
    20:00 +10°C° 0 mm 1 mps 728 mmHg 78%
    21:00 +10°C° 0 mm 1 mps 728 mmHg 80%
    22:00 +9°C° 0 mm 1 mps 728 mmHg 82%
    23:00 +9°C° 0 mm 1 mps 728 mmHg 84%

    29 May, Monday

    Time Temperature Precipitation Wind Pressure Humidity
    00:00 +8°C° 0 mm 1 mps 728 mmHg 85%
    01:00 +7°C° 0 mm 0 mps 728 mmHg 87%
    02:00 +7°C° 0 mm 0 mps 728 mmHg 88%
    03:00 +6°C° 0 mm 0 mps 728 mmHg 89%
    04:00 +6°C° 0 mm 0 mps 728 mmHg 90%
    05:00 +6°C° 0 mm 0 mps 727 mmHg 91%
    06:00 +7°C° 0 mm 0 mps 728 mmHg 91%
    07:00 +7°C° 0 mm 0 mps 729 mmHg 90%
    08:00 +8°C° 0 mm 0 mps 729 mmHg 90%
    09:00 +11°C° 0 mm 1 mps 729 mmHg 82%
    10:00 +13°C° 0 mm 1 mps 730 mmHg 74%
    11:00 +15°C° 0 mm 1 mps 730 mmHg 66%
    12:00 +15°C° 0 mm 2 mps 730 mmHg 64%
    13:00 +16°C° 0 mm 2 mps 729 mmHg 62%
    14:00 +17°C° 0 mm 2 mps 729 mmHg 60%
    15:00 +16°C° 0 mm 2 mps 729 mmHg 64%
    16:00 +15°C° 0 mm 2 mps 729 mmHg 68%
    17:00 +15°C° 0 mm 2 mps 729 mmHg 72%
    18:00 +14°C° 0 mm 2 mps 729 mmHg 77%
    19:00 +13°C° 0 mm 2 mps 729 mmHg 83%
    20:00 +12°C° 0 mm 2 mps 730 mmHg 88%
    21:00 +12°C° 0 mm 1 mps 730 mmHg 90%
    22:00 +12°C° 0 mm 1 mps 730 mmHg 91%
    23:00 +12°C° 0 mm 1 mps 731 mmHg 93%

    30 May, Tuesday

    Time Temperature Precipitation Wind Pressure Humidity
    00:00 +12°C° 0 mm 1 mps 730 mmHg 93%
    01:00 +12°C° 0 mm 1 mps 730 mmHg 93%
    02:00 +10°C° 0 mm 2 mps 730 mmHg 93%
    03:00 +10°C° 0.1 mm 2 mps 730 mmHg 94%
    04:00 +10°C° 0.1 mm 2 mps 730 mmHg 94%
    05:00 +10°C° 0.1 mm 2 mps 730 mmHg 94%
    06:00 +12°C° 0.1 mm 2 mps 730 mmHg 94%
    07:00 +12°C° 0.1 mm 2 mps 730 mmHg 94%
    08:00 +12°C° 0.1 mm 2 mps 731 mmHg 94%
    09:00 +12°C° 0.1 mm 2 mps 731 mmHg 91%
    10:00 +13°C° 0.1 mm 2 mps 731 mmHg 89%
    11:00 +13°C° 0.1 mm 2 mps 730 mmHg 86%
    12:00 +14°C° 0.1 mm 2 mps 730 mmHg 85%
    13:00 +14°C° 0.1 mm 2 mps 729 mmHg 84%
    14:00 +14°C° 0.1 mm 2 mps 729 mmHg 83%
    15:00 +14°C° 0.1 mm 2 mps 729 mmHg 86%
    16:00 +13°C° 0.1 mm 2 mps 729 mmHg 89%
    17:00 +13°C° 0.1 mm 2 mps 729 mmHg 92%
    18:00 +13°C° 0.1 mm 2 mps 729 mmHg 92%
    19:00 +13°C° 0.1 mm 2 mps 729 mmHg 93%
    20:00 +12°C° 0.1 mm 1 mps 730 mmHg 94%
    21:00 +12°C° 0 mm 1 mps 730 mmHg 94%
    22:00 +12°C° 0 mm 1 mps 730 mmHg 94%
    23:00 +11°C° 0 mm 1 mps 730 mmHg 94%

    31 May, Wednesday

    Time Temperature Precipitation Wind Pressure Humidity
    00:00 +11°C° 0 mm 1 mps 729 mmHg 94%
    01:00 +11°C° 0 mm 1 mps 729 mmHg 95%
    02:00 +10°C° 0 mm 1 mps 729 mmHg 95%
    03:00 +10°C° 0 mm 1 mps 729 mmHg 96%
    04:00 +9°C° 0 mm 1 mps 728 mmHg 96%
    05:00 +9°C° 0 mm 1 mps 728 mmHg 97%
    06:00 +10°C° 0 mm 1 mps 729 mmHg 96%
    07:00 +10°C° 0 mm 1 mps 729 mmHg 95%
    08:00 +11°C° 0 mm 1 mps 729 mmHg 95%
    09:00 +12°C° 0 mm 1 mps 730 mmHg 87%
    10:00 +14°C° 0 mm 1 mps 730 mmHg 79%
    11:00 +15°C° 0 mm 1 mps 730 mmHg 72%
    12:00 +16°C° 0 mm 1 mps 730 mmHg 68%
    13:00 +16°C° 0 mm 2 mps 729 mmHg 65%
    14:00 +17°C° 0 mm 2 mps 729 mmHg 61%
    15:00 +16°C° 0 mm 2 mps 728 mmHg 66%
    16:00 +15°C° 0 mm 2 mps 728 mmHg 71%
    17:00 +15°C° 0 mm 1 mps 728 mmHg 75%
    18:00 +13°C° 0 mm 1 mps 728 mmHg 81%
    19:00 +12°C° 0 mm 1 mps 729 mmHg 86%
    20:00 +11°C° 0 mm 1 mps 729 mmHg 92%
    21:00 +11°C° 0 mm 1 mps 729 mmHg 92%
    22:00 +11°C° 0 mm 1 mps 729 mmHg 92%
    23:00 +11°C° 0 mm 1 mps 729 mmHg 91%
    Show more